Regional Weather Roundup
Issued by NWS Austin/San Antonio, TX

Home | Current Version | Previous Version | Text Only | Print | Product List | Glossary On
Versions: 1 2 3 4 5 6 7 8 9 10 11 12 13 14 15 16 17 18 19 20 21 22 23 24 25 26 27 28 29 30 31 32 33 34 35 36 37 38 39 40 41 42 43 44 45 46 47 48 49 50
000
ASUS44 KEWX 180610
RWREWX
SOUTH TEXAS REGIONAL WEATHER ROUNDUP
NATIONAL WEATHER SERVICE AUSTIN/SAN ANTONIO TX
1200 AM CST SUN FEB 18 2018

NOTE: "FAIR" INDICATED FEW OR NO CLOUDS BELOW 12,000 FEET WITH NO
SIGNIFICANT WEATHER AND/OR OBSTRUCTIONS TO VISIBILITY.

* - THESE STATIONS ARE NOT NWS OR FAA STATIONS...AND ARE NOT SUBJECT
    TO NWS AND FAA QUALITY CONTROL.

TXZ171-172-183>190-180700-
TEXAS HILL COUNTRY AND EDWARDS PLATEAU

CITY           SKY/WX    TMP DP  RH WIND       PRES   REMARKS
JUNCTION       PTCLDY    56  45  66 E3        30.13F
6HR MIN TEMP:  56; 6HR MAX TEMP:  75;

*LLANO         CLOUDY    48  45  87 CALM      30.19S
BURNET         CLOUDY    51  44  77 VRB3      30.17S
6HR MIN TEMP:  51; 6HR MAX TEMP:  65;

*HORSESHOE BAY CLOUDY    48  46  91 CALM      30.16S
6HR MIN TEMP:  48; 6HR MAX TEMP:  64;

*KERRVILLE     CLEAR     51  47  87 E5        30.15S
6HR MIN TEMP:  51; 6HR MAX TEMP:  65;

*FREDERICKSBRG CLOUDY    49  44  85 CALM      30.15F
6HR MIN TEMP:  49; 6HR MAX TEMP:  66;

*ROCKSPRINGS   PTCLDY    57  57 100 E3        30.17F
*BOERNE STAGE  CLOUDY    52  46  82 N5        30.15F
*CASTROVILLE   CLOUDY    58  48  69 E5        30.14S
HONDO          CLOUDY    61  50  67 E13       30.12S
6HR MIN TEMP:  61; 6HR MAX TEMP:  72;

*UVALDE        CLOUDY    60  55  86 NE10      30.11F
6HR MIN TEMP:  59; 6HR MAX TEMP:  73;

DEL RIO        CLOUDY    65  61  87 E6        30.07F
6HR MIN TEMP:  65; 6HR MAX TEMP:  82;

LAUGHLIN AFB   NOT AVBL
CARRIZO SPRGS  CLEAR     63  55  77 E7        30.08S
*EAGLE PASS    CLEAR     63  59  88 E8        30.08F
*FAITH RANCH   MOCLDY    66  61  82 NE10      30.06F
$$

TXZ173-191>194-202-209-217>225-228-180700-
CENTRAL AND SOUTH CENTRAL TEXAS

CITY           SKY/WX    TMP DP  RH WIND       PRES   REMARKS
GEORGETOWN     FOG       47  46  97 CALM      30.18S VSB 1/2
6HR MIN TEMP:  46; 6HR MAX TEMP:  58;

AUSTIN/BERGSTM CLOUDY    51  51 100 N7        30.15F
6HR MIN TEMP:  45; 6HR MAX TEMP:  55;

AUSTIN/MABRY   CLOUDY    52  48  86 CALM      30.16F
6HR MIN TEMP:  51; 6HR MAX TEMP:  58;

*AUSTIN/EXEC   CLOUDY    48  48 100 N6        30.16F FOG     WCI  46
*LAGO VISTA    CLOUDY    50  47  90 E9        30.15F WCI  46
6HR MIN TEMP:  50; 6HR MAX TEMP:  59;

SAN MARCOS     CLOUDY    54  49  83 NE8       30.16S
6HR MIN TEMP:  50; 6HR MAX TEMP:  59;

NEW BRAUNFELS  CLOUDY    56  49  77 NE10      30.13F
6HR MIN TEMP:  54; 6HR MAX TEMP:  61; 6HR PCP: TRACE;

RANDOLPH AFB   CLOUDY    57  50  77 NE9       30.13F
6HR MIN TEMP:  56; 6HR MAX TEMP:  62;

PT SAN ANTONIO CLOUDY    59  50  72 NE12      30.11F
6HR MIN TEMP:  57; 6HR MAX TEMP:  66;

SAN ANTONIO    CLOUDY    57  49  74 NE5       30.13F
6HR MIN TEMP:  56; 6HR MAX TEMP:  63;

STINSON FIELD  CLOUDY    60  53  77 NE8       30.11F
6HR MIN TEMP:  60; 6HR MAX TEMP:  68;

*LA GRANGE     CLOUDY    56  54  95 NE5       30.13F
6HR MIN TEMP:  55; 6HR MAX TEMP:  59;

*GIDDINGS      CLOUDY    51  49  95 NE5       30.15F FOG
6HR MIN TEMP:  51; 6HR MAX TEMP:  55;

*GONZALES      CLOUDY    57  56  99 NE7       30.13F FOG
6HR MIN TEMP:  57; 6HR MAX TEMP:  62;

$$

TXZ163>164-176>182-195>201-210>213-226-227-235-180700-
SOUTHEAST TEXAS

CITY           SKY/WX    TMP DP  RH WIND       PRES   REMARKS
COLLEGE STN    LGT RAIN  52  52 100 NE7       30.16S FOG
6HR MIN TEMP:  52; 6HR MAX TEMP:  53; 6HR PCP:  0.02;

*BRYAN         CLOUDY    51  51 100 NE7       30.18S
6HR MIN TEMP:  50; 6HR MAX TEMP:  51;

*CALDWELL      CLOUDY    52  50  93 NE7       30.17F
6HR MIN TEMP:  51; 6HR MAX TEMP:  53;

*CROCKETT      CLOUDY    52  50  93 NE6       30.20S
*BRENHAM       CLOUDY    54  54  99 NE5       30.16S FOG
6HR MIN TEMP:  54; 6HR MAX TEMP:  58;

HUNTSVILLE     LGT RAIN  53  52  96 NE5       30.16F FOG
6HR MIN TEMP:  53; 6HR MAX TEMP:  53; 6HR PCP:  0.03;

CONROE         CLOUDY    56  54  93 VRB3      30.15F
6HR MIN TEMP:  56; 6HR MAX TEMP:  57; 6HR PCP: TRACE;

HOUSTON BUSH   CLOUDY    60  55  83 NE8       30.14S
6HR MIN TEMP:  59; 6HR MAX TEMP:  64;

HOUSTON HOBBY  CLOUDY    62  59  90 NE7       30.12F
6HR MIN TEMP:  61; 6HR MAX TEMP:  77; 6HR PCP: TRACE;

*HOUSTON SW AP CLOUDY    62  57  83 NE3       30.13F
6HR MIN TEMP:  60; 6HR MAX TEMP:  75;

PEARLAND       CLOUDY    63  60  90 NE6       30.13F
6HR MIN TEMP:  63; 6HR MAX TEMP:  77;

HOUSTON HOOKS  CLOUDY    59  54  83 NE7       30.14F
6HR MIN TEMP:  58; 6HR MAX TEMP:  60;

ELLINGTON FLD  CLOUDY    63  57  82 NE5       30.14S
SUGAR LAND     CLOUDY    64  55  72 N8        30.12F
6HR MIN TEMP:  63; 6HR MAX TEMP:  72;

*HOUSTON EXEC  CLOUDY    59  55  88 NE7       30.15S
*CLEVELAND MUN CLOUDY    57  53  86 CALM      30.16F FOG
6HR MIN TEMP:  56; 6HR MAX TEMP:  58;

*WHARTON       CLOUDY    61  54  78 NE3       30.13F
6HR MIN TEMP:  59; 6HR MAX TEMP:  74;

*COLUMBUS      CLOUDY    56  54  92 NW3       30.15S
6HR MIN TEMP:  56; 6HR MAX TEMP:  62;

*EAGLE LAKE    CLOUDY    58  56  93 N7        30.13S
6HR MIN TEMP:  58; 6HR MAX TEMP:  63;

$$

TXZ214>216-236>238-180700-
THE UPPER TEXAS COAST

CITY           SKY/WX    TMP DP  RH WIND       PRES   REMARKS
*ORANGE        CLOUDY    61  61 100 CALM      30.15F FOG
6HR MIN TEMP:  61; 6HR MAX TEMP:  71; 6HR PCP:  0.02;

PORT ARTHUR    CLOUDY    62  60  93 N5        30.13S
6HR MIN TEMP:  61; 6HR MAX TEMP:  71; 6HR PCP:  0.08;

GALVESTON      CLOUDY    65  62  90 N7        30.12F
6HR MIN TEMP:  63; 6HR MAX TEMP:  70;

ANGLETON       FOG       68  67  96 NE6       30.11S VSB 1/2
6HR MIN TEMP:  68; 6HR MAX TEMP:  73;

*BAY CITY      CLOUDY    64  62  91 CALM      30.11S
PALACIOS       CLOUDY    66  65  96 CALM      30.10F
6HR MIN TEMP:  66; 6HR MAX TEMP:  72;

$$

TXZ229>234-239>247-180700-
TEXAS COASTAL BEND AND RIO GRANDE PLAINS

CITY           SKY/WX    TMP DP  RH WIND       PRES   REMARKS
VICTORIA       CLOUDY    60  56  86 NE6       30.12F
6HR MIN TEMP:  60; 6HR MAX TEMP:  74; 6HR PCP:  0.05;

*BEEVILLE      CLOUDY    64  60  85 NE7       30.10F
6HR MIN TEMP:  64; 6HR MAX TEMP:  76;

ROCKPORT       CLOUDY    67  66  97 E5        30.09S FOG
6HR MIN TEMP:  66; 6HR MAX TEMP:  69;

*PORT ARANSAS  NOT AVBL
*PORT LAVACA   CLOUDY    62  59  91 NE6       30.11F
6HR MIN TEMP:  62; 6HR MAX TEMP:  71;

*INGLESIDE     CLEAR     69  67  94 MISG      30.08S
CORPUS CHRISTI MOCLDY    69  69 100 SE10      30.07F
6HR MIN TEMP:  69; 6HR MAX TEMP:  75;

CORPUS NAS     CLEAR     70  69  97 SE14      30.07S
6HR MIN TEMP:  69; 6HR MAX TEMP:  72;

*ROBSTOWN      CLOUDY    69  67  94 E5        30.08F
6HR MIN TEMP:  68; 6HR MAX TEMP:  76;

ALICE          CLOUDY    69  67  93 SE6       30.07S
6HR MIN TEMP:  69; 6HR MAX TEMP:  78;

KINGSVILLE NAS MOCLDY    70  68  93 SE13      30.06F
6HR MIN TEMP:  70; 6HR MAX TEMP:  76;

COTULLA        CLOUDY    63  55  75 E13G20    30.07F
6HR MIN TEMP:  63; 6HR MAX TEMP:  80;

LAREDO         CLEAR     71  63  75 NE10      30.04F
6HR MIN TEMP:  71; 6HR MAX TEMP:  79;

$$

TXZ248>255-180700-
DEEP SOUTH TEXAS

CITY           SKY/WX    TMP DP  RH WIND       PRES   REMARKS
BROWNSVILLE    CLOUDY    72  71  97 SE10      30.07S
6HR MIN TEMP:  71; 6HR MAX TEMP:  77;

PORT ISABEL    CLOUDY    70  67  90 SE9       30.06F
6HR MIN TEMP:  70; 6HR MAX TEMP:  74;

*SOUTH P



USA.gov is the U.S. government's official web portal to all federal, state and local government web resources and services.